カタログに戻る

NOAA 16 DEB

運用中SSO
NORAD 41233·DEBRIS·🇺🇸 United States

打ち上げ Sep 21, 2000 から Vandenberg Space Force Base

Loading…

次のパス (今後24時間)

TLE

最新Source: Space-Track

元期: Sep 14, 2026, 01:46 UTC

1 41233U 00055EN  26257.07407050  .00001888  00000-0  87296-3 0  9998
2 41233  98.6885 293.7780 0037106 240.5178 119.2296 14.21705506553788

AllMySatでNOAA 16 DEBをリアルタイム追跡

Download on the App Store